[[{"header":{"parameterUnit":"m.s-1","parameterCategory":1,"la1":30.2991,"la2":30.254,"lo1":-89.0895,"lo2":-89.0444,"dy":0.0017,"dx":0.0017,"nx":28,"ny":28,"refTime":"2025-07-11T21:00:00:Z","depth":0,"parameterNumber":2,"parameterNumberName":"U-component_of_WINDS"},"data":[0,0,0,0,0,0,0,0,0,0,0,0,0,0,0,0,0,0,0,0,0,0,0,0,0,0,0,0,0,0,0,0,0,0,0,0,0,0,0,0,0,0,0,0,0,0,0,0,0,0,0,0,0,0,0,0,0,0,3.0671,3.0673,0,3.0783,3.0784,3.0786,3.0772,3.077,3.0768,3.0766,3.088,3.0884,3.0889,0,0,0,0,0,0,0,0,0,0,0,0,0,3.0443,3.0448,3.0671,3.0673,3.0674,3.0783,3.0784,3.0786,3.0772,3.077,3.0767,3.0765,3.0878,3.0884,3.089,0,0,0,0,0,0,0,0,0,0,0,0,0,3.0547,3.0449,3.0671,3.068,3.0682,3.0783,3.0785,3.0786,3.0772,3.077,3.0767,3.0764,3.0876,3.0883,3.089,3.0989,0,0,3.0912,3.0915,0,0,0,0,0,0,0,0,3.0542,3.0556,3.0677,3.068,3.0682,3.0761,3.0746,3.0854,3.0773,3.0738,3.0766,3.0763,3.0842,3.0852,3.0879,3.0994,3.0999,3.0913,3.0917,3.092,3.0922,0,0,0,0,0,0,0,3.0534,3.0551,3.0716,3.0679,3.0682,3.0678,3.069,3.0766,3.0804,3.0741,3.074,3.0754,3.0843,3.0872,3.0882,3.1,3.0912,3.0919,3.0923,3.0926,3.1198,3.1201,0,0,0,0,0,0,3.0525,3.0545,3.0712,3.0719,3.0604,3.0684,3.0697,3.0738,3.0803,3.0811,3.0756,3.0753,3.0861,3.0873,3.0885,3.1002,3.092,3.0926,3.0931,3.1196,3.1199,3.1202,0,0,0,0,0,0,3.052,3.054,3.0707,3.0632,3.0653,3.0691,3.0737,3.0742,3.0771,3.0815,3.0821,3.0779,3.086,3.0875,3.0962,3.1006,3.093,3.0936,3.1192,3.1197,3.1201,3.1239,0,0,0,0,0,0,3.0514,3.0538,3.0577,3.0633,3.0657,3.0783,3.074,3.0746,3.0783,3.078,3.0838,3.0845,3.0859,3.0952,3.0969,3.1015,3.0942,3.1188,3.1194,3.1199,3.1234,3.1244,3.1253,0,0,0,0,0,3.0506,3.0584,3.0579,3.0599,3.0706,3.0786,3.08,3.0815,3.0787,3.0825,3.0853,3.0843,3.0999,3.0961,3.0981,3.1029,3.1185,3.1192,3.1199,3.1229,3.1242,3.1252,0,0,0,0,0,0,3.0532,3.0591,3.0587,3.0685,3.0731,3.0783,3.0832,3.0828,3.0882,3.0877,3.0893,3.0906,3.0993,3.102,3.0976,3.1126,3.1088,3.1099,3.1105,3.1117,3.1126,3.1117,3.0948,0,0,0,0,0,3.0549,3.061,3.0658,3.074,3.0763,3.0794,3.083,3.0837,3.0885,3.0904,3.0938,3.0984,3.1043,3.1082,3.1139,3.1238,3.1249,3.128,3.129,3.1297,3.1306,3.1358,3.1371,3.1225,3.1224,3.1224,0,0,3.0586,3.0625,3.0663,3.0747,3.0783,3.0844,3.081,3.0877,3.0922,3.0914,3.0997,3.1024,3.1076,3.1169,3.1211,3.1194,3.1349,3.1306,3.1312,3.1316,3.1366,3.138,3.1392,3.1229,3.1228,3.1228,0,0,3.0683,3.072,3.0791,3.0828,3.0882,3.0902,3.0919,3.0972,3.0989,3.1074,3.1068,3.1121,3.1224,3.1261,3.1293,3.1402,3.1393,3.142,3.1469,3.1519,3.153,3.1541,3.1577,3.159,3.1429,3.1429,3.1429,0,3.072,3.0813,3.0828,3.0895,3.0931,3.0926,3.0997,3.1032,3.1103,3.1127,3.1107,3.1233,3.1269,3.1368,3.1394,3.1422,3.144,3.1413,3.1528,3.1538,3.1548,3.1583,3.1597,3.1432,3.1431,3.1431,3.1431,0,3.0856,3.092,3.0971,3.1038,3.108,3.1149,3.1173,3.1214,3.1218,3.1239,3.1323,3.1365,3.1429,3.1454,3.1459,3.1554,3.1541,3.1524,3.1486,3.1564,3.1597,3.1611,3.1435,3.1434,3.1434,3.1433,0,0,3.0973,3.1046,3.1065,3.1094,3.1153,3.1203,3.1271,3.1333,3.1366,3.1415,3.1471,3.1557,3.1541,3.1578,3.1586,3.163,3.1711,3.1608,3.1609,3.1623,3.1815,3.1825,3.1841,3.1706,3.1709,3.1711,3.181,0,3.1073,3.1193,3.1208,3.1314,3.1372,3.1367,3.1426,3.1468,3.1489,3.1541,3.1565,3.1624,3.16,3.1622,3.1665,3.1692,3.1749,3.1685,3.1756,3.1759,3.1741,3.1858,3.187,3.1961,3.1823,3.1825,3.1827,0,3.1207,3.1258,3.137,3.1419,3.1444,3.1497,3.1554,3.1604,3.1651,3.1663,3.1703,3.1705,3.1774,3.1735,3.1828,3.1784,3.1814,3.1831,3.1835,3.1841,3.1796,3.1865,3.1991,3.2004,3.1848,3.1846,3.1844,0,3.1277,3.1375,3.1454,3.1479,3.1539,3.1576,3.1602,3.1647,3.1683,3.1733,3.1756,3.1813,3.1844,3.1888,3.1905,3.1876,3.1997,3.196,3.2007,3.2007,3.2032,3.203,3.2162,3.2055,3.2055,3.2055,3.2054,0,3.1387,3.1455,3.1486,3.1534,3.1609,3.1625,3.1699,3.1724,3.1763,3.1815,3.1815,3.1863,3.1884,3.1936,3.195,3.2023,3.2038,3.2049,3.2051,3.2047,3.2046,3.2066,3.2059,3.2058,3.2058,3.2057,3.2056,0,3.1478,3.1502,3.1587,3.1636,3.165,3.1703,3.1745,3.179,3.1811,3.1877,3.1893,3.1925,3.1985,3.2007,3.2081,3.209,3.2175,3.2173,3.2159,3.2159,3.2204,3.2198,3.2352,3.2372,3.2254,3.2255,3.2256,0,3.1546,3.1598,3.1652,3.1687,3.1714,3.1771,3.1807,3.1824,3.1861,3.1917,3.1956,3.2016,3.2065,3.2161,3.2191,3.2247,3.2245,3.2295,3.2253,3.2247,3.2242,3.2238,3.2242,3.2302,3.2303,3.2304,3.2305,0,3.1662,3.167,3.1723,3.1779,3.1822,3.1867,3.191,3.1939,3.1962,3.2004,3.2065,3.2103,3.2178,3.2236,3.2293,3.232,3.2316,3.2318,3.2332,3.2327,3.2315,3.232,3.2177,3.2314,3.2313,3.2313,3.2312,3.2312,3.1742,3.1786,3.1831,3.1889,3.1923,3.1963,3.2008,3.2033,3.2085,3.2147,3.2154,3.2219,3.2263,3.2339,3.2367,3.2418,3.2404,3.2424,3.2429,3.2433,3.2435,3.2309,3.2429,3.2429,3.2428,3.2428,3.2428,0,3.1856,3.1884,3.1937,3.1997,3.2041,3.2034,3.2082,3.2119,3.2177,3.2218,3.2265,3.2335,3.2391,3.2425,3.2481,3.2515,3.2514,3.2529,3.2525,3.2531,3.2446,3.2427,3.2528,3.2528,3.2528,3.2528,3.2528,3.2528,3.192,3.1994,3.2008,3.2099,3.2126,3.219,3.2217,3.2254,3.2286,3.2364,3.241,3.2432,3.2469,3.2528,3.2579,3.2587,3.2607,3.2622,3.2629,3.2548,3.2538,3.2528,3.251,3.2627,3.2627,3.271,3.271,3.2711]},{"header":{"parameterUnit":"m.s-1","parameterCategory":1,"la1":30.2991,"la2":30.254,"lo1":-89.0895,"lo2":-89.0444,"dy":0.0017,"dx":0.0017,"nx":28,"ny":28,"refTime":"2025-07-11T21:00:00:Z","depth":0,"parameterNumber":3,"parameterNumberName":"V-component_of_WINDS"},"data":[0,0,0,0,0,0,0,0,0,0,0,0,0,0,0,0,0,0,0,0,0,0,0,0,0,0,0,0,0,0,0,0,0,0,0,0,0,0,0,0,0,0,0,0,0,0,0,0,0,0,0,0,0,0,0,0,0,0,0.4342,0.4342,0,0.4332,0.4332,0.4331,0.4297,0.4297,0.4296,0.4295,0.4286,0.4287,0.4287,0,0,0,0,0,0,0,0,0,0,0,0,0,0.4333,0.4334,0.4342,0.4342,0.4342,0.4332,0.4332,0.4331,0.4298,0.4297,0.4296,0.4295,0.4286,0.4287,0.4287,0,0,0,0,0,0,0,0,0,0,0,0,0,0.4332,0.4334,0.4342,0.4324,0.4322,0.4332,0.4332,0.4331,0.4298,0.4297,0.4295,0.4294,0.4286,0.4287,0.4287,0.4315,0,0,0.4289,0.429,0,0,0,0,0,0,0,0,0.4332,0.4332,0.4327,0.4325,0.4323,0.4315,0.4325,0.4326,0.4298,0.4307,0.4295,0.4294,0.4297,0.4296,0.4297,0.4314,0.4314,0.429,0.429,0.429,0.429,0,0,0,0,0,0,0,0.4332,0.4332,0.4338,0.4326,0.4324,0.4316,0.4315,0.4325,0.4309,0.4306,0.4304,0.4303,0.4296,0.4297,0.4297,0.4314,0.429,0.429,0.4291,0.4291,0.4352,0.4353,0,0,0,0,0,0,0.4335,0.4333,0.4338,0.4338,0.4325,0.4317,0.4316,0.4319,0.4308,0.4306,0.4304,0.4301,0.4296,0.4296,0.4296,0.4327,0.429,0.4291,0.4291,0.4351,0.4352,0.4354,0,0,0,0,0,0,0.4334,0.4335,0.4339,0.4334,0.4334,0.4319,0.4322,0.4319,0.432,0.4306,0.4303,0.4308,0.4295,0.4295,0.431,0.4327,0.4291,0.4292,0.4349,0.4351,0.4353,0.439,0,0,0,0,0,0,0.4334,0.4336,0.4346,0.4335,0.4335,0.4353,0.4323,0.432,0.4321,0.4318,0.4309,0.4307,0.4294,0.4309,0.4311,0.4327,0.4292,0.4348,0.435,0.4352,0.4387,0.4393,0.4398,0,0,0,0,0,0.4334,0.4357,0.4346,0.4347,0.4347,0.4354,0.4354,0.4338,0.4322,0.4333,0.4324,0.4307,0.4324,0.4311,0.4312,0.4329,0.4347,0.435,0.4352,0.4385,0.4392,0.4398,0,0,0,0,0,0,0.4371,0.4355,0.4343,0.4364,0.436,0.4348,0.4361,0.4346,0.4347,0.4344,0.4325,0.4323,0.4341,0.4336,0.4322,0.4355,0.4333,0.4336,0.4357,0.4364,0.4369,0.437,0.4293,0,0,0,0,0,0.4382,0.4388,0.4374,0.4393,0.4392,0.4377,0.4379,0.4367,0.4363,0.4362,0.4354,0.4351,0.4356,0.4359,0.4363,0.4386,0.4384,0.4398,0.4403,0.4408,0.4411,0.4423,0.4429,0.4362,0.4362,0.4362,0,0,0.4404,0.4396,0.4401,0.44,0.4396,0.4404,0.4376,0.4385,0.439,0.4363,0.4377,0.4371,0.4366,0.4385,0.4393,0.4382,0.4429,0.4411,0.4415,0.4416,0.4426,0.4433,0.4438,0.4364,0.4364,0.4364,0,0,0.4447,0.4442,0.4457,0.4453,0.4447,0.4436,0.444,0.443,0.4425,0.4437,0.4417,0.4423,0.4432,0.4429,0.4429,0.447,0.4455,0.4472,0.4499,0.4511,0.4516,0.4521,0.4536,0.4541,0.4475,0.4475,0.4475,0,0.4476,0.4486,0.4467,0.4477,0.4477,0.4452,0.4467,0.4464,0.446,0.4461,0.4448,0.4457,0.4453,0.4471,0.4481,0.4481,0.4485,0.4473,0.4517,0.4521,0.4525,0.4539,0.4545,0.4477,0.4477,0.4477,0.4476,0,0.4521,0.4528,0.4541,0.4536,0.4538,0.4551,0.4534,0.4538,0.4525,0.4516,0.4529,0.4522,0.4523,0.4527,0.4515,0.4543,0.4536,0.452,0.4498,0.4534,0.4547,0.4552,0.448,0.4479,0.4479,0.4478,0,0,0.4589,0.4573,0.4578,0.4575,0.4566,0.4571,0.4583,0.4583,0.4587,0.4584,0.4594,0.4601,0.4586,0.4585,0.4573,0.4583,0.4616,0.4566,0.4565,0.4576,0.4647,0.4659,0.4666,0.4605,0.4606,0.4607,0.4647,0,0.4631,0.4649,0.4632,0.4654,0.466,0.4635,0.4645,0.464,0.4631,0.4636,0.4626,0.4631,0.4611,0.4611,0.462,0.461,0.463,0.4607,0.4614,0.4615,0.4617,0.4672,0.4686,0.4724,0.4652,0.4653,0.4654,0,0.4683,0.4681,0.4704,0.4692,0.4694,0.4703,0.4702,0.4706,0.47,0.4693,0.4692,0.4676,0.4686,0.4664,0.4678,0.4662,0.4664,0.466,0.4661,0.4662,0.4637,0.4675,0.4736,0.4742,0.4661,0.4661,0.466,0,0.4731,0.4735,0.4748,0.4747,0.4733,0.474,0.4735,0.4728,0.4729,0.4728,0.4729,0.4729,0.4729,0.473,0.4715,0.47,0.4731,0.4707,0.4726,0.4726,0.4734,0.4734,0.4797,0.4734,0.4734,0.4734,0.4734,0,0.478,0.4794,0.4769,0.4778,0.4793,0.4773,0.4789,0.4782,0.4775,0.4782,0.476,0.4767,0.4746,0.475,0.4738,0.4752,0.4752,0.4747,0.4744,0.4749,0.475,0.4751,0.4748,0.4735,0.4735,0.4735,0.4735,0,0.4837,0.482,0.4834,0.4819,0.4816,0.4828,0.4816,0.4824,0.4813,0.4821,0.4822,0.4806,0.481,0.4794,0.4796,0.4788,0.4808,0.48,0.481,0.4808,0.4827,0.4826,0.4893,0.4901,0.4833,0.4834,0.4834,0,0.4869,0.488,0.4866,0.4869,0.4864,0.4869,0.487,0.485,0.4852,0.4845,0.4853,0.4855,0.4856,0.4864,0.4852,0.4853,0.4845,0.4869,0.4846,0.4851,0.4846,0.4846,0.4847,0.4874,0.4875,0.4876,0.4876,0,0.4929,0.492,0.4922,0.4921,0.4922,0.492,0.4917,0.492,0.4899,0.4902,0.4905,0.4906,0.4907,0.4909,0.4908,0.4903,0.4886,0.4883,0.4888,0.4894,0.49,0.4897,0.4824,0.4882,0.4882,0.4881,0.4881,0.4881,0.4975,0.4983,0.4975,0.4977,0.4972,0.4969,0.4975,0.4965,0.4967,0.4966,0.4954,0.496,0.4953,0.4949,0.4945,0.495,0.4939,0.4945,0.4947,0.4949,0.4953,0.4898,0.4949,0.4949,0.4949,0.4949,0.4948,0,0.5034,0.5027,0.5029,0.5025,0.5027,0.501,0.5005,0.5008,0.5013,0.5007,0.5008,0.5012,0.5014,0.5002,0.5002,0.5008,0.5001,0.5009,0.5009,0.5008,0.4962,0.4958,0.5015,0.5015,0.5015,0.5015,0.5015,0.5015,0.5065,0.5078,0.5068,0.5077,0.507,0.5075,0.5074,0.5071,0.5067,0.5072,0.5073,0.5065,0.5056,0.5056,0.5057,0.5053,0.5055,0.5066,0.506,0.5018,0.5011,0.5005,0.5001,0.5066,0.5066,0.5105,0.5105,0.5106]}]]